| time (UTC) | temp C | wind direction | speed KPH | gust KPH | rain 1hr cm | rain 24hr cm | rain mn cm | humidity % | barometer mb |
| 20260506110016 | 18 | 195 | 32.2 | 75.6 | 0.00 | 0.00 | 0.00 | 69 | 1014.1 |
| 20260506104512 | 18 | 217 | 38.6 | 70.8 | 0.00 | 0.00 | 0.00 | 69 | 1014.0 |
| 20260506103023 | 18 | 207 | 37.0 | 57.9 | 0.00 | 0.00 | 0.00 | 70 | 1013.5 |
| 20260506101507 | 17 | 209 | 48.3 | 67.6 | 0.00 | 0.00 | 0.00 | 71 | 1013.5 |
| 20260506100004 | 17 | 212 | 38.6 | 67.6 | 0.00 | 0.00 | 0.00 | 71 | 1013.2 |
| 20260506094600 | 17 | 242 | 49.9 | 77.2 | 0.00 | 0.00 | 0.00 | 70 | 1013.2 |
| 20260506093056 | 17 | 229 | 45.1 | 69.2 | 0.00 | 0.00 | 0.00 | 69 | 1013.0 |
| 20260506091554 | 17 | 197 | 43.5 | 69.2 | 0.00 | 0.00 | 0.00 | 68 | 1013.0 |
| 20260506090049 | 17 | 203 | 41.8 | 61.2 | 0.00 | 0.00 | 0.00 | 67 | 1012.7 |
| 20260506084546 | 17 | 207 | 38.6 | 59.5 | 0.00 | 0.00 | 0.00 | 65 | 1012.6 |
| 20260506083045 | 17 | 171 | 43.5 | 66.0 | 0.00 | 0.00 | 0.00 | 63 | 1012.5 |
| 20260506081546 | 17 | 227 | 37.0 | 57.9 | 0.00 | 0.00 | 0.00 | 63 | 1012.1 |
| 20260506073037 | 17 | 202 | 41.8 | 64.4 | 0.00 | 0.00 | 0.00 | 60 | 1012.4 |
| 20260506071544 | 17 | 198 | 38.6 | 57.9 | 0.00 | 0.00 | 0.00 | 60 | 1012.0 |
| 20260506061534 | 18 | 157 | 24.1 | 74.0 | 0.00 | 0.00 | 0.00 | 55 | 1012.2 |
| 20260506044603 | 18 | 218 | 41.8 | 56.3 | 0.00 | 0.00 | 0.00 | 55 | 1012.3 |
| 20260506043057 | 18 | 192 | 35.4 | 57.9 | 0.00 | 0.00 | 0.00 | 57 | 1012.4 |
| 20260506041558 | 18 | 190 | 32.2 | 51.5 | 0.00 | 0.00 | 0.00 | 57 | 1012.3 |
| 20260506040058 | 18 | 180 | 38.6 | 62.8 | 0.00 | 0.00 | 0.00 | 59 | 1012.3 |
| 20260506034552 | 18 | 207 | 35.4 | 64.4 | 0.00 | 0.00 | 0.00 | 58 | 1011.8 |
| 20260506033050 | 18 | 195 | 29.0 | 48.3 | 0.00 | 0.00 | 0.00 | 58 | 1011.7 |
| 20260506031557 | 18 | 155 | 27.4 | 54.7 | 0.00 | 0.00 | 0.00 | 57 | 1011.5 |
| 20260506030058 | 19 | 151 | 29.0 | 69.2 | 0.00 | 0.00 | 0.00 | 55 | 1011.4 |
| 20260506024542 | 20 | 205 | 33.8 | 54.7 | 0.00 | 0.00 | 0.00 | 53 | 1011.5 |
| 20260506023042 | 20 | 174 | 38.6 | 66.0 | 0.00 | 0.00 | 0.00 | 52 | 1011.7 |
| 20260506021541 | 20 | 186 | 37.0 | 64.4 | 0.00 | 0.00 | 0.00 | 51 | 1011.6 |
| 20260506020040 | 20 | 224 | 41.8 | 66.0 | 0.00 | 0.00 | 0.00 | 51 | 1011.4 |
| 20260506014538 | 20 | 195 | 37.0 | 67.6 | 0.00 | 0.00 | 0.00 | 51 | 1011.5 |
| 20260506013041 | 20 | 184 | 43.5 | 70.8 | 0.00 | 0.00 | 0.00 | 51 | 1011.5 |
| 20260506011536 | 20 | 171 | 35.4 | 61.2 | 0.00 | 0.00 | 0.00 | 50 | 1011.4 |
| 20260506010035 | 20 | 165 | 40.2 | 66.0 | 0.00 | 0.00 | 0.00 | 49 | 1011.3 |
| 20260506004559 | 19 | 195 | 40.2 | 64.4 | 0.00 | 0.00 | 0.00 | 49 | 1011.2 |
| 20260506003032 | 19 | 174 | 43.5 | 69.2 | 0.00 | 0.00 | 0.00 | 47 | 1011.0 |
| 20260506001531 | 19 | 206 | 45.1 | 67.6 | 0.00 | 0.00 | 0.00 | 46 | 1010.8 |
| 20260506000030 | 19 | 211 | 38.6 | 56.3 | 0.00 | 0.00 | 0.00 | 44 | 1010.5 |
| 20260505234601 | 19 | 206 | 38.6 | 64.4 | 0.00 | 0.00 | 0.00 | 43 | 1010.3 |
| 20260505233031 | 19 | 174 | 40.2 | 61.2 | 0.00 | 0.00 | 0.00 | 43 | 1010.2 |
| 20260505231529 | 20 | 176 | 22.5 | 53.1 | 0.00 | 0.00 | 0.00 | 44 | 1009.8 |
| 20260505230027 | 20 | 206 | 22.5 | 45.1 | 0.00 | 0.00 | 0.00 | 43 | 1009.7 |
| 20260505224530 | 20 | 165 | 20.9 | 38.6 | 0.00 | 0.00 | 0.00 | 44 | 1009.5 |
| 20260505223025 | 21 | 212 | 37.0 | 54.7 | 0.00 | 0.00 | 0.00 | 40 | 1009.7 |
| 20260505221527 | 21 | 177 | 24.1 | 43.5 | 0.00 | 0.00 | 0.00 | 41 | 1009.8 |
| 20260505220024 | 21 | 161 | 33.8 | 61.2 | 0.00 | 0.00 | 0.00 | 40 | 1009.8 |
| 20260505214524 | 22 | 185 | 35.4 | 56.3 | 0.00 | 0.00 | 0.00 | 40 | 1009.6 |
| 20260505213023 | 22 | 187 | 22.5 | 40.2 | 0.00 | 0.00 | 0.00 | 40 | 1009.6 |
| 20260505211522 | 23 | 212 | 35.4 | 46.7 | 0.00 | 0.00 | 0.00 | 38 | 1009.7 |
| 20260505210022 | 23 | 217 | 27.4 | 54.7 | 0.00 | 0.00 | 0.00 | 38 | 1009.8 |
| 20260505204525 | 23 | 200 | 35.4 | 53.1 | 0.00 | 0.00 | 0.00 | 37 | 1009.8 |
| 20260505203023 | 23 | 199 | 35.4 | 54.7 | 0.00 | 0.00 | 0.00 | 38 | 1009.8 |
| 20260505201525 | 23 | 225 | 32.2 | 48.3 | 0.00 | 0.00 | 0.00 | 36 | 1010.0 |
| 20260505200023 | 23 | 178 | 32.2 | 51.5 | 0.00 | 0.00 | 0.00 | 36 | 1009.8 |
| 20260505194517 | 23 | 185 | 22.5 | 62.8 | 0.00 | 0.00 | 0.00 | 38 | 1009.7 |
| 20260505193016 | 23 | 163 | 25.7 | 43.5 | 0.00 | 0.00 | 0.00 | 39 | 1009.7 |
| 20260505191519 | 23 | 194 | 20.9 | 51.5 | 0.00 | 0.00 | 0.00 | 40 | 1009.9 |
| 20260505190015 | 23 | 236 | 27.4 | 53.1 | 0.00 | 0.00 | 0.00 | 40 | 1009.6 |
| 20260505184523 | 23 | 262 | 24.1 | 66.0 | 0.00 | 0.00 | 0.00 | 40 | 1009.8 |
| 20260505183037 | 23 | 244 | 27.4 | 48.3 | 0.00 | 0.00 | 0.00 | 38 | 1009.7 |
| 20260505181513 | 23 | 259 | 27.4 | 49.9 | 0.00 | 0.00 | 0.00 | 40 | 1009.6 |
| 20260505180009 | 22 | 240 | 19.3 | 37.0 | 0.00 | 0.00 | 0.00 | 43 | 1009.7 |
| 20260505174509 | 13 | 273 | 11.3 | 19.3 | 0.00 | 0.00 | 0.00 | 66 | 1009.7 |
| 20260505173017 | 10 | 313 | 6.4 | 16.1 | 0.00 | 0.00 | 0.00 | 71 | 1010.0 |
| 20260505171506 | 10 | 323 | 6.4 | 14.5 | 0.00 | 0.00 | 0.00 | 79 | 1010.2 |
| 20260505170009 | 8 | 322 | 6.4 | 16.1 | 0.00 | 0.00 | 0.00 | 80 | 1010.4 |
| 20260505164505 | 8 | 307 | 9.7 | 14.5 | 0.00 | 0.08 | 0.00 | 79 | 1010.5 |
| 20260505163004 | 8 | 46 | 14.5 | 19.3 | 0.00 | 0.08 | 0.00 | 76 | 1010.4 |
| 20260505161503 | 10 | 48 | 17.7 | 20.9 | 0.00 | 0.08 | 0.00 | 70 | 1010.3 |
| 20260505153059 | 17 | 196 | 22.5 | 41.8 | 0.00 | 0.20 | 0.00 | 55 | 1010.3 |
| 20260505151603 | 17 | 230 | 16.1 | 37.0 | 0.00 | 0.20 | 0.00 | 53 | 1010.5 |
| 20260505124521 | 12 | 200 | 22.5 | 45.1 | 0.00 | 0.33 | 0.00 | 70 | 1010.8 |
| 20260505123016 | 11 | 151 | 14.5 | 43.5 | 0.00 | 0.33 | 0.00 | 70 | 1010.4 |
| 20260505121512 | 11 | 255 | 14.5 | 33.8 | 0.00 | 0.33 | 0.00 | 69 | 1010.3 |
| 20260505120007 | 11 | 232 | 9.7 | 30.6 | 0.00 | 0.33 | 0.00 | 69 | 1009.9 |
| 20260505114501 | 11 | 296 | 9.7 | 30.6 | 0.00 | 0.33 | 0.00 | 69 | 1009.6 |
| 20260505113057 | 10 | 154 | 11.3 | 33.8 | 0.00 | 0.33 | 0.00 | 73 | 1009.5 |
| 20260505111550 | 10 | 205 | 16.1 | 46.7 | 0.00 | 0.33 | 0.00 | 74 | 1009.7 |